| time (UTC) | temp F | wind direction | speed knots | gust knots | rain 1hr in | rain 24hr in | rain mn in | humidity % | barometer mb |
| 20260507054146 | 41 | 249 | 0.0 | 0.0 | 0.00 | 0.00 | 0.00 | 62 | 1027.7 |
| 20260507053633 | 41 | 249 | 0.0 | 0.0 | 0.00 | 0.00 | 0.00 | 62 | 1027.7 |
| 20260507053135 | 41 | 249 | 0.0 | 0.0 | 0.00 | 0.00 | 0.00 | 62 | 1027.7 |
| 20260507052607 | 41 | 249 | 0.0 | 0.0 | 0.00 | 0.00 | 0.00 | 61 | 1027.8 |
| 20260507052057 | 41 | 249 | 0.0 | 0.0 | 0.00 | 0.00 | 0.00 | 61 | 1027.8 |
| 20260507051555 | 41 | 249 | 0.0 | 0.0 | 0.00 | 0.00 | 0.00 | 61 | 1027.9 |
| 20260507051324 | 41 | 249 | 0.0 | 0.0 | 0.00 | 0.00 | 0.00 | 62 | 1027.9 |
| 20260507050525 | 41 | 249 | 0.0 | 0.0 | 0.00 | 0.00 | 0.00 | 63 | 1027.9 |
| 20260507050255 | 41 | 249 | 0.0 | 0.0 | 0.00 | 0.00 | 0.00 | 61 | 1027.9 |
| 20260507045500 | 41 | 249 | 0.0 | 0.0 | 0.00 | 0.00 | 0.00 | 61 | 1027.9 |
| 20260507045004 | 41 | 249 | 0.0 | 0.0 | 0.00 | 0.00 | 0.00 | 60 | 1028.0 |
| 20260507044435 | 41 | 249 | 0.0 | 0.0 | 0.00 | 0.00 | 0.00 | 59 | 1028.0 |
| 20260507043934 | 41 | 249 | 0.0 | 0.0 | 0.00 | 0.00 | 0.00 | 58 | 1028.0 |
| 20260507043637 | 41 | 249 | 0.0 | 0.0 | 0.00 | 0.00 | 0.00 | 58 | 1028.1 |
| 20260507042904 | 41 | 249 | 0.0 | 0.0 | 0.00 | 0.00 | 0.00 | 58 | 1028.1 |
| 20260507042335 | 41 | 249 | 0.0 | 0.0 | 0.00 | 0.00 | 0.00 | 58 | 1028.1 |
| 20260507041825 | 41 | 249 | 0.0 | 0.0 | 0.00 | 0.00 | 0.00 | 57 | 1028.1 |
| 20260507041324 | 41 | 249 | 0.0 | 0.0 | 0.00 | 0.00 | 0.00 | 57 | 1028.2 |
| 20260507040758 | 41 | 249 | 0.0 | 0.0 | 0.00 | 0.00 | 0.00 | 57 | 1028.2 |
| 20260507040240 | 41 | 249 | 0.0 | 0.0 | 0.00 | 0.00 | 0.00 | 57 | 1028.2 |
| 20260507035742 | 41 | 249 | 0.0 | 0.0 | 0.00 | 0.00 | 0.00 | 57 | 1028.2 |
| 20260507035239 | 41 | 249 | 0.0 | 0.0 | 0.00 | 0.00 | 0.00 | 57 | 1028.3 |
| 20260507035011 | 41 | 249 | 0.0 | 0.0 | 0.00 | 0.00 | 0.00 | 57 | 1028.3 |
| 20260507034212 | 41 | 249 | 0.0 | 0.0 | 0.00 | 0.00 | 0.00 | 57 | 1028.3 |
| 20260507034145 | 41 | 249 | 0.0 | 0.0 | 0.00 | 0.00 | 0.00 | 57 | 1028.3 |
| 20260507033139 | 41 | 249 | 0.0 | 0.0 | 0.00 | 0.00 | 0.00 | 57 | 1028.3 |
| 20260507032609 | 41 | 249 | 0.0 | 0.0 | 0.00 | 0.00 | 0.00 | 58 | 1028.4 |
| 20260507032111 | 41 | 249 | 0.0 | 0.0 | 0.00 | 0.00 | 0.00 | 58 | 1028.4 |
| 20260507031614 | 41 | 249 | 0.0 | 0.0 | 0.00 | 0.00 | 0.00 | 58 | 1028.3 |
| 20260507031319 | 41 | 249 | 0.0 | 0.0 | 0.00 | 0.00 | 0.00 | 59 | 1028.4 |
| 20260507030519 | 41 | 249 | 0.0 | 0.0 | 0.00 | 0.00 | 0.00 | 59 | 1028.4 |
| 20260507025951 | 41 | 249 | 0.0 | 0.0 | 0.00 | 0.00 | 0.00 | 58 | 1028.5 |
| 20260507025447 | 41 | 249 | 0.0 | 0.0 | 0.00 | 0.00 | 0.00 | 58 | 1028.5 |
| 20260507025213 | 41 | 249 | 0.0 | 0.0 | 0.00 | 0.00 | 0.00 | 58 | 1028.4 |
| 20260507024432 | 41 | 249 | 0.0 | 0.0 | 0.00 | 0.00 | 0.00 | 58 | 1028.5 |
| 20260507023857 | 41 | 249 | 0.0 | 0.0 | 0.00 | 0.00 | 0.00 | 57 | 1028.4 |
| 20260507023351 | 41 | 249 | 0.0 | 0.0 | 0.00 | 0.00 | 0.00 | 57 | 1028.4 |
| 20260507022850 | 41 | 249 | 0.0 | 0.0 | 0.00 | 0.00 | 0.00 | 57 | 1028.5 |
| 20260507022552 | 41 | 249 | 0.0 | 0.0 | 0.00 | 0.00 | 0.00 | 57 | 1028.4 |
| 20260507021821 | 41 | 249 | 0.0 | 0.0 | 0.00 | 0.00 | 0.00 | 56 | 1028.5 |
| 20260507021310 | 41 | 249 | 0.0 | 0.0 | 0.00 | 0.00 | 0.00 | 56 | 1028.6 |
| 20260507020742 | 42 | 249 | 0.0 | 0.0 | 0.00 | 0.00 | 0.00 | 56 | 1028.5 |
| 20260507020511 | 42 | 249 | 0.0 | 0.0 | 0.00 | 0.00 | 0.00 | 55 | 1028.5 |
| 20260507015727 | 42 | 249 | 0.0 | 0.0 | 0.00 | 0.00 | 0.00 | 54 | 1028.5 |
| 20260507015230 | 42 | 249 | 0.0 | 0.0 | 0.00 | 0.00 | 0.00 | 54 | 1028.5 |
| 20260507014701 | 42 | 249 | 0.0 | 0.0 | 0.00 | 0.00 | 0.00 | 53 | 1028.4 |
| 20260507014419 | 42 | 249 | 0.0 | 0.0 | 0.00 | 0.00 | 0.00 | 53 | 1028.4 |
| 20260507013617 | 43 | 249 | 0.0 | 0.0 | 0.00 | 0.00 | 0.00 | 52 | 1028.4 |
| 20260507013116 | 43 | 249 | 0.0 | 0.0 | 0.00 | 0.00 | 0.00 | 52 | 1028.4 |
| 20260507012548 | 43 | 249 | 0.0 | 0.0 | 0.00 | 0.00 | 0.00 | 52 | 1028.5 |
| 20260507012044 | 43 | 249 | 0.0 | 0.0 | 0.00 | 0.00 | 0.00 | 51 | 1028.5 |
| 20260507011523 | 43 | 249 | 0.0 | 0.0 | 0.00 | 0.00 | 0.00 | 51 | 1028.5 |
| 20260507011026 | 44 | 249 | 0.0 | 0.0 | 0.00 | 0.00 | 0.00 | 50 | 1028.5 |
| 20260507010457 | 44 | 249 | 0.0 | 0.0 | 0.00 | 0.00 | 0.00 | 50 | 1028.6 |
| 20260507005956 | 44 | 249 | 0.0 | 0.0 | 0.00 | 0.00 | 0.00 | 49 | 1028.6 |
| 20260507005427 | 44 | 250 | 0.0 | 0.0 | 0.00 | 0.00 | 0.00 | 49 | 1028.5 |
| 20260507004924 | 44 | 250 | 0.0 | 0.0 | 0.00 | 0.00 | 0.00 | 49 | 1028.5 |
| 20260507004357 | 45 | 250 | 0.0 | 0.0 | 0.00 | 0.00 | 0.00 | 48 | 1028.6 |
| 20260507003839 | 45 | 250 | 0.0 | 1.7 | 0.00 | 0.00 | 0.00 | 48 | 1028.6 |
| 20260507003336 | 45 | 254 | 0.0 | 1.7 | 0.00 | 0.00 | 0.00 | 46 | 1028.6 |
| 20260507002833 | 45 | 190 | 0.0 | 4.3 | 0.00 | 0.00 | 0.00 | 47 | 1028.6 |
| 20260507002332 | 45 | 250 | 0.0 | 4.3 | 0.00 | 0.00 | 0.00 | 46 | 1028.6 |
| 20260507001803 | 46 | 254 | 0.0 | 0.0 | 0.00 | 0.00 | 0.00 | 47 | 1028.7 |
| 20260507001259 | 46 | 247 | 0.0 | 3.5 | 0.00 | 0.00 | 0.00 | 47 | 1028.7 |
| 20260507000741 | 46 | 269 | 0.0 | 3.5 | 0.00 | 0.00 | 0.00 | 46 | 1028.7 |
| 20260507000240 | 46 | 233 | 0.0 | 0.0 | 0.00 | 0.00 | 0.00 | 46 | 1028.7 |
| 20260506235711 | 46 | 247 | 0.0 | 0.0 | 0.00 | 0.00 | 0.00 | 47 | 1028.7 |
| 20260506235210 | 46 | 254 | 0.0 | 0.0 | 0.00 | 0.00 | 0.00 | 48 | 1028.8 |
| 20260506234644 | 46 | 254 | 0.0 | 2.6 | 0.00 | 0.00 | 0.00 | 47 | 1028.8 |
| 20260506234127 | 46 | 231 | 0.0 | 2.6 | 0.00 | 0.00 | 0.00 | 47 | 1028.9 |
| 20260506233631 | 46 | 234 | 0.0 | 0.0 | 0.00 | 0.00 | 0.00 | 47 | 1028.9 |
| 20260506233104 | 46 | 231 | 0.0 | 0.0 | 0.00 | 0.00 | 0.00 | 46 | 1028.9 |
| 20260506232535 | 46 | 231 | 0.0 | 0.0 | 0.00 | 0.00 | 0.00 | 46 | 1028.9 |
| 20260506232306 | 47 | 238 | 0.0 | 0.0 | 0.00 | 0.00 | 0.00 | 46 | 1028.9 |
| 20260506231740 | 47 | 238 | 0.0 | 0.0 | 0.00 | 0.00 | 0.00 | 45 | 1028.9 |
| 20260506230951 | 47 | 237 | 0.0 | 0.0 | 0.00 | 0.00 | 0.00 | 46 | 1028.9 |
| 20260506230453 | 47 | 237 | 0.0 | 0.9 | 0.00 | 0.00 | 0.00 | 45 | 1028.9 |
| 20260506225925 | 47 | 271 | 0.0 | 0.9 | 0.00 | 0.00 | 0.00 | 44 | 1028.9 |
| 20260506225658 | 47 | 250 | 0.0 | 0.9 | 0.00 | 0.00 | 0.00 | 44 | 1028.9 |
| 20260506224915 | 47 | 240 | 0.0 | 0.9 | 0.00 | 0.00 | 0.00 | 44 | 1028.9 |
| 20260506224417 | 48 | 159 | 0.0 | 0.9 | 0.00 | 0.00 | 0.00 | 45 | 1029.0 |
| 20260506223849 | 48 | 301 | 0.0 | 0.0 | 0.00 | 0.00 | 0.00 | 45 | 1028.9 |
| 20260506223345 | 48 | 309 | 0.0 | 0.0 | 0.00 | 0.00 | 0.00 | 45 | 1028.9 |
| 20260506222843 | 48 | 238 | 0.0 | 0.0 | 0.00 | 0.00 | 0.00 | 43 | 1028.9 |
| 20260506222612 | 48 | 259 | 0.0 | 0.0 | 0.00 | 0.00 | 0.00 | 44 | 1029.0 |
| 20260506221842 | 48 | 245 | 0.0 | 1.7 | 0.00 | 0.00 | 0.00 | 44 | 1028.9 |
| 20260506221333 | 48 | 230 | 0.0 | 1.7 | 0.00 | 0.00 | 0.00 | 44 | 1029.0 |
| 20260506221100 | 48 | 236 | 0.0 | 6.1 | 0.00 | 0.00 | 0.00 | 45 | 1029.0 |
| 20260506220304 | 48 | 209 | 0.0 | 6.1 | 0.00 | 0.00 | 0.00 | 44 | 1028.9 |
| 20260506220010 | 48 | 244 | 0.0 | 0.9 | 0.00 | 0.00 | 0.00 | 45 | 1029.0 |
| 20260506215232 | 48 | 248 | 0.0 | 0.9 | 0.00 | 0.00 | 0.00 | 45 | 1029.1 |
| 20260506215005 | 47 | 248 | 0.0 | 0.9 | 0.00 | 0.00 | 0.00 | 45 | 1029.1 |
| 20260506214230 | 47 | 227 | 0.0 | 0.9 | 0.00 | 0.00 | 0.00 | 45 | 1029.2 |
| 20260506213731 | 47 | 247 | 0.0 | 1.7 | 0.00 | 0.00 | 0.00 | 44 | 1029.2 |
| 20260506213229 | 47 | 241 | 0.0 | 1.7 | 0.00 | 0.00 | 0.00 | 45 | 1029.3 |
| 20260506212729 | 47 | 230 | 0.0 | 0.9 | 0.00 | 0.00 | 0.00 | 45 | 1029.3 |
| 20260506212225 | 47 | 248 | 0.0 | 0.9 | 0.00 | 0.00 | 0.00 | 45 | 1029.3 |
| 20260506211729 | 47 | 229 | 0.0 | 0.9 | 0.00 | 0.00 | 0.00 | 46 | 1029.3 |
| 20260506211443 | 47 | 250 | 0.0 | 0.9 | 0.00 | 0.00 | 0.00 | 48 | 1029.3 |
| 20260506210713 | 46 | 233 | 0.0 | 0.9 | 0.00 | 0.00 | 0.00 | 45 | 1029.4 |
| 20260506210203 | 47 | 215 | 0.0 | 2.6 | 0.00 | 0.00 | 0.00 | 46 | 1029.6 |
| 20260506210151 | 47 | 228 | 0.0 | 2.6 | 0.00 | 0.00 | 0.00 | 46 | 1029.7 |
| 20260506205149 | 47 | 254 | 0.0 | 0.0 | 0.00 | 0.00 | 0.00 | 47 | 1029.7 |
| 20260506204635 | 47 | 229 | 0.0 | 0.0 | 0.00 | 0.00 | 0.00 | 47 | 1029.7 |
| 20260506204117 | 47 | 248 | 0.0 | 5.2 | 0.00 | 0.00 | 0.00 | 47 | 1029.8 |
| 20260506203607 | 47 | 260 | 0.0 | 5.2 | 0.00 | 0.00 | 0.00 | 47 | 1029.9 |
| 20260506203100 | 47 | 248 | 0.0 | 0.9 | 0.00 | 0.00 | 0.00 | 47 | 1029.7 |
| 20260506202603 | 47 | 257 | 0.0 | 0.0 | 0.00 | 0.00 | 0.00 | 48 | 1029.8 |
| 20260506202043 | 47 | 217 | 0.0 | 0.9 | 0.00 | 0.00 | 0.00 | 48 | 1029.8 |
| 20260506201542 | 46 | 237 | 0.0 | 3.5 | 0.00 | 0.00 | 0.00 | 49 | 1029.8 |
| 20260506201046 | 46 | 233 | 0.0 | 3.5 | 0.00 | 0.00 | 0.00 | 51 | 1029.7 |
| 20260506200523 | 45 | 201 | 0.0 | 2.6 | 0.00 | 0.00 | 0.00 | 50 | 1029.9 |
| 20260506200012 | 44 | 272 | 0.0 | 2.6 | 0.00 | 0.00 | 0.00 | 51 | 1029.9 |
| 20260506195454 | 44 | 242 | 0.0 | 0.0 | 0.00 | 0.00 | 0.00 | 51 | 1029.9 |
| 20260506194952 | 44 | 250 | 0.0 | 0.0 | 0.00 | 0.00 | 0.00 | 52 | 1030.0 |
| 20260506194447 | 44 | 270 | 0.0 | 0.0 | 0.00 | 0.00 | 0.00 | 52 | 1030.0 |
| 20260506193925 | 44 | 240 | 0.0 | 1.7 | 0.00 | 0.00 | 0.00 | 51 | 1030.0 |
| 20260506193358 | 44 | 256 | 0.0 | 1.7 | 0.00 | 0.00 | 0.00 | 50 | 1030.0 |
| 20260506192839 | 45 | 232 | 0.0 | 3.5 | 0.00 | 0.00 | 0.00 | 50 | 1030.0 |
| 20260506192338 | 45 | 220 | 0.0 | 3.5 | 0.00 | 0.00 | 0.00 | 50 | 1030.0 |
| 20260506191839 | 45 | 244 | 0.0 | 5.2 | 0.00 | 0.00 | 0.00 | 51 | 1030.1 |
| 20260506191559 | 45 | 222 | 0.0 | 5.2 | 0.00 | 0.00 | 0.00 | 50 | 1030.1 |
| 20260506190825 | 45 | 67 | 0.0 | 1.7 | 0.00 | 0.00 | 0.00 | 51 | 1030.1 |
| 20260506190259 | 45 | 172 | 0.0 | 1.7 | 0.00 | 0.00 | 0.00 | 52 | 1030.1 |
| 20260506185744 | 45 | 250 | 0.0 | 6.1 | 0.00 | 0.00 | 0.00 | 51 | 1030.1 |
| 20260506185221 | 45 | 265 | 0.0 | 6.1 | 0.00 | 0.00 | 0.00 | 51 | 1030.0 |
| 20260506184719 | 44 | 288 | 0.0 | 3.5 | 0.00 | 0.00 | 0.00 | 51 | 1030.1 |
| 20260506184214 | 44 | 282 | 0.0 | 3.5 | 0.00 | 0.00 | 0.00 | 51 | 1030.1 |
| 20260506183648 | 44 | 250 | 0.0 | 1.7 | 0.00 | 0.00 | 0.00 | 53 | 1030.1 |
| 20260506183126 | 43 | 236 | 0.0 | 5.2 | 0.00 | 0.00 | 0.00 | 52 | 1030.1 |
| 20260506182624 | 43 | 265 | 0.0 | 8.7 | 0.00 | 0.00 | 0.00 | 53 | 1030.1 |
| 20260506182123 | 43 | 242 | 0.0 | 10.4 | 0.00 | 0.00 | 0.00 | 52 | 1030.1 |
| 20260506181825 | 43 | 215 | 0.0 | 10.4 | 0.00 | 0.00 | 0.00 | 52 | 1030.1 |
| 20260506181032 | 43 | 272 | 0.0 | 6.1 | 0.00 | 0.00 | 0.00 | 51 | 1030.2 |
| 20260506180501 | 43 | 263 | 0.0 | 1.7 | 0.00 | 0.00 | 0.00 | 51 | 1030.3 |
| 20260506175958 | 43 | 267 | 0.0 | 0.9 | 0.00 | 0.00 | 0.00 | 51 | 1030.2 |
| 20260506175448 | 43 | 244 | 0.0 | 4.3 | 0.00 | 0.00 | 0.00 | 52 | 1030.2 |
| 20260506175217 | 43 | 192 | 0.0 | 4.3 | 0.00 | 0.00 | 0.00 | 52 | 1030.3 |
| 20260506174445 | 43 | 242 | 0.0 | 2.6 | 0.00 | 0.00 | 0.00 | 52 | 1030.3 |
| 20260506174149 | 42 | 223 | 0.0 | 2.6 | 0.00 | 0.00 | 0.00 | 53 | 1030.3 |
| 20260506173412 | 42 | 227 | 0.0 | 0.9 | 0.00 | 0.00 | 0.00 | 53 | 1030.3 |
| 20260506172906 | 42 | 253 | 0.0 | 0.9 | 0.00 | 0.00 | 0.00 | 53 | 1030.4 |
| 20260506172409 | 42 | 244 | 0.0 | 0.9 | 0.00 | 0.00 | 0.00 | 53 | 1030.5 |
| 20260506171841 | 42 | 252 | 0.0 | 0.9 | 0.00 | 0.00 | 0.00 | 53 | 1030.5 |
| 20260506171315 | 41 | 241 | 0.0 | 2.6 | 0.00 | 0.00 | 0.00 | 54 | 1030.5 |
| 20260506170810 | 41 | 238 | 0.0 | 3.5 | 0.00 | 0.00 | 0.00 | 53 | 1030.5 |
| 20260506170309 | 41 | 233 | 0.0 | 1.7 | 0.00 | 0.00 | 0.00 | 54 | 1030.5 |
| 20260506165740 | 42 | 247 | 0.0 | 0.9 | 0.00 | 0.00 | 0.00 | 54 | 1030.5 |
| 20260506165230 | 41 | 274 | 0.0 | 0.9 | 0.00 | 0.00 | 0.00 | 54 | 1030.5 |
| 20260506164730 | 41 | 244 | 0.0 | 0.9 | 0.00 | 0.00 | 0.00 | 54 | 1030.6 |
| 20260506164209 | 41 | 237 | 0.0 | 0.9 | 0.00 | 0.00 | 0.00 | 54 | 1030.6 |
| 20260506163632 | 41 | 275 | 0.0 | 0.9 | 0.00 | 0.00 | 0.00 | 54 | 1030.5 |
| 20260506163107 | 41 | 267 | 0.0 | 0.9 | 0.00 | 0.00 | 0.00 | 53 | 1030.6 |
| 20260506162541 | 41 | 281 | 0.0 | 2.6 | 0.00 | 0.00 | 0.00 | 53 | 1030.6 |
| 20260506162041 | 41 | 269 | 0.0 | 2.6 | 0.00 | 0.00 | 0.00 | 54 | 1030.6 |
| 20260506161536 | 41 | 267 | 0.0 | 0.0 | 0.00 | 0.00 | 0.00 | 54 | 1030.6 |
| 20260506161034 | 41 | 267 | 0.0 | 1.7 | 0.00 | 0.00 | 0.00 | 55 | 1030.6 |
| 20260506160530 | 41 | 266 | 0.0 | 1.7 | 0.00 | 0.00 | 0.00 | 55 | 1030.5 |
| 20260506160028 | 41 | 229 | 0.0 | 0.9 | 0.00 | 0.00 | 0.00 | 55 | 1030.6 |
| 20260506160022 | 41 | 240 | 0.0 | 0.9 | 0.00 | 0.00 | 0.00 | 54 | 1030.5 |
| 20260506155232 | 41 | 170 | 0.0 | 0.0 | 0.00 | 0.00 | 0.00 | 55 | 1030.5 |
| 20260506154437 | 41 | 170 | 0.0 | 0.0 | 0.00 | 0.00 | 0.00 | 55 | 1030.4 |
| 20260506153912 | 40 | 253 | 0.0 | 0.9 | 0.00 | 0.00 | 0.00 | 55 | 1030.4 |
| 20260506153358 | 40 | 254 | 0.0 | 2.6 | 0.00 | 0.00 | 0.00 | 54 | 1030.4 |
| 20260506152901 | 40 | 249 | 0.0 | 2.6 | 0.00 | 0.00 | 0.00 | 55 | 1030.3 |
| 20260506152603 | 40 | 227 | 0.0 | 0.9 | 0.00 | 0.00 | 0.00 | 55 | 1030.4 |
| 20260506151809 | 40 | 220 | 0.0 | 0.9 | 0.00 | 0.00 | 0.00 | 56 | 1030.4 |
| 20260506151511 | 40 | 288 | 0.0 | 2.6 | 0.00 | 0.00 | 0.00 | 57 | 1030.4 |
| 20260506151353 | 40 | 261 | 0.0 | 2.6 | 0.00 | 0.00 | 0.00 | 56 | 1030.3 |
| 20260506150210 | 40 | 259 | 0.0 | 0.9 | 0.00 | 0.00 | 0.00 | 57 | 1030.4 |
| 20260506145711 | 39 | 247 | 0.0 | 0.9 | 0.00 | 0.00 | 0.00 | 56 | 1030.4 |
| 20260506145152 | 39 | 234 | 0.0 | 0.9 | 0.00 | 0.00 | 0.00 | 57 | 1030.5 |
| 20260506144657 | 39 | 267 | 0.0 | 0.0 | 0.00 | 0.00 | 0.00 | 57 | 1030.4 |
| 20260506144128 | 39 | 267 | 0.0 | 0.9 | 0.00 | 0.00 | 0.00 | 57 | 1030.4 |
| 20260506143627 | 39 | 263 | 0.0 | 0.9 | 0.00 | 0.00 | 0.00 | 57 | 1030.3 |
| 20260506143058 | 39 | 232 | 0.0 | 0.9 | 0.00 | 0.00 | 0.00 | 58 | 1030.4 |
| 20260506142556 | 39 | 242 | 0.0 | 0.0 | 0.00 | 0.00 | 0.00 | 58 | 1030.3 |
| 20260506142039 | 39 | 242 | 0.0 | 0.0 | 0.00 | 0.00 | 0.00 | 59 | 1030.3 |
| 20260506141543 | 38 | 242 | 0.0 | 0.0 | 0.00 | 0.00 | 0.00 | 58 | 1030.4 |
| 20260506141017 | 38 | 242 | 0.0 | 0.0 | 0.00 | 0.00 | 0.00 | 59 | 1030.4 |
| 20260506140448 | 38 | 252 | 0.0 | 0.0 | 0.00 | 0.00 | 0.00 | 59 | 1030.3 |
| 20260506135945 | 38 | 242 | 0.0 | 0.0 | 0.00 | 0.00 | 0.00 | 59 | 1030.3 |
| 20260506135418 | 38 | 240 | 0.0 | 0.0 | 0.00 | 0.00 | 0.00 | 59 | 1030.3 |
| 20260506134851 | 38 | 262 | 0.0 | 0.0 | 0.00 | 0.00 | 0.00 | 60 | 1030.2 |
| 20260506134623 | 38 | 262 | 0.0 | 0.0 | 0.00 | 0.00 | 0.00 | 61 | 1030.2 |
| 20260506133851 | 38 | 262 | 0.0 | 0.0 | 0.00 | 0.00 | 0.00 | 60 | 1030.1 |
| 20260506133346 | 38 | 244 | 0.0 | 0.0 | 0.00 | 0.00 | 0.00 | 61 | 1030.1 |
| 20260506132849 | 38 | 229 | 0.0 | 0.0 | 0.00 | 0.00 | 0.00 | 61 | 1030.1 |
| 20260506132844 | 38 | 229 | 0.0 | 0.0 | 0.00 | 0.00 | 0.00 | 61 | 1030.1 |
| 20260506131822 | 38 | 180 | 0.0 | 0.0 | 0.00 | 0.00 | 0.00 | 62 | 1030.0 |
| 20260506131325 | 38 | 166 | 0.0 | 0.0 | 0.00 | 0.00 | 0.00 | 62 | 1030.0 |
| 20260506130759 | 38 | 235 | 0.0 | 0.0 | 0.00 | 0.00 | 0.00 | 64 | 1029.9 |
| 20260506130234 | 38 | 234 | 0.0 | 0.0 | 0.00 | 0.00 | 0.00 | 65 | 1029.9 |
| 20260506125730 | 37 | 234 | 0.0 | 0.0 | 0.00 | 0.00 | 0.00 | 66 | 1029.8 |
| 20260506125229 | 37 | 234 | 0.0 | 0.0 | 0.00 | 0.00 | 0.00 | 66 | 1029.7 |
| 20260506124959 | 37 | 258 | 0.0 | 0.0 | 0.00 | 0.00 | 0.00 | 67 | 1029.7 |
| 20260506124225 | 37 | 258 | 0.0 | 0.0 | 0.00 | 0.00 | 0.00 | 68 | 1029.6 |
| 20260506123657 | 37 | 242 | 0.0 | 0.0 | 0.00 | 0.00 | 0.00 | 69 | 1029.4 |
| 20260506123152 | 37 | 242 | 0.0 | 0.0 | 0.00 | 0.00 | 0.00 | 69 | 1029.4 |
| 20260506122651 | 36 | 242 | 0.0 | 0.0 | 0.00 | 0.00 | 0.00 | 70 | 1029.4 |
| 20260506122123 | 36 | 225 | 0.0 | 1.7 | 0.00 | 0.00 | 0.00 | 71 | 1029.2 |
| 20260506121618 | 36 | 225 | 0.0 | 1.7 | 0.00 | 0.00 | 0.00 | 72 | 1029.1 |
| 20260506121323 | 35 | 198 | 0.0 | 0.0 | 0.00 | 0.00 | 0.00 | 72 | 1029.0 |
| 20260506120552 | 35 | 198 | 0.0 | 0.0 | 0.00 | 0.00 | 0.00 | 73 | 1028.9 |
| 20260506120026 | 35 | 198 | 0.0 | 0.0 | 0.00 | 0.00 | 0.00 | 74 | 1029.0 |
| 20260506115527 | 35 | 198 | 0.0 | 0.0 | 0.00 | 0.00 | 0.00 | 74 | 1028.9 |
| 20260506115230 | 34 | 198 | 0.0 | 0.0 | 0.00 | 0.00 | 0.00 | 75 | 1028.8 |
| 20260506114457 | 34 | 198 | 0.0 | 0.0 | 0.00 | 0.00 | 0.00 | 75 | 1028.7 |
| 20260506114159 | 34 | 198 | 0.0 | 0.0 | 0.00 | 0.00 | 0.00 | 75 | 1028.5 |
| 20260506113357 | 34 | 198 | 0.0 | 0.0 | 0.00 | 0.00 | 0.00 | 75 | 1028.5 |
| 20260506112842 | 34 | 198 | 0.0 | 0.0 | 0.00 | 0.00 | 0.00 | 75 | 1028.4 |
| 20260506112339 | 33 | 198 | 0.0 | 0.0 | 0.00 | 0.00 | 0.00 | 75 | 1028.4 |
| 20260506111842 | 33 | 198 | 0.0 | 0.0 | 0.00 | 0.00 | 0.00 | 75 | 1028.3 |
| 20260506111610 | 33 | 198 | 0.0 | 0.0 | 0.00 | 0.00 | 0.00 | 75 | 1028.3 |
| 20260506110843 | 33 | 198 | 0.0 | 0.0 | 0.00 | 0.00 | 0.00 | 75 | 1028.2 |
| 20260506110321 | 33 | 198 | 0.0 | 0.0 | 0.00 | 0.00 | 0.00 | 76 | 1028.3 |
| 20260506105816 | 33 | 198 | 0.0 | 0.0 | 0.00 | 0.00 | 0.00 | 76 | 1028.4 |
| 20260506105317 | 33 | 198 | 0.0 | 0.0 | 0.00 | 0.00 | 0.00 | 76 | 1028.5 |
| 20260506104757 | 33 | 198 | 0.0 | 0.0 | 0.00 | 0.00 | 0.00 | 76 | 1028.6 |
| 20260506104257 | 33 | 198 | 0.0 | 0.0 | 0.00 | 0.00 | 0.00 | 76 | 1028.6 |
| 20260506103727 | 33 | 198 | 0.0 | 0.0 | 0.00 | 0.00 | 0.00 | 76 | 1028.6 |
| 20260506103217 | 33 | 198 | 0.0 | 0.0 | 0.00 | 0.00 | 0.00 | 76 | 1028.6 |
| 20260506102716 | 33 | 198 | 0.0 | 0.0 | 0.00 | 0.00 | 0.00 | 75 | 1028.6 |
| 20260506102152 | 33 | 173 | 0.0 | 0.0 | 0.00 | 0.00 | 0.00 | 75 | 1028.5 |
| 20260506101654 | 33 | 173 | 0.0 | 0.0 | 0.00 | 0.00 | 0.00 | 75 | 1028.4 |
| 20260506101139 | 33 | 173 | 0.0 | 0.0 | 0.00 | 0.00 | 0.00 | 74 | 1028.3 |
| 20260506100640 | 33 | 173 | 0.0 | 0.0 | 0.00 | 0.00 | 0.00 | 74 | 1028.2 |
| 20260506100138 | 33 | 173 | 0.0 | 0.0 | 0.00 | 0.00 | 0.00 | 74 | 1028.2 |
| 20260506095844 | 33 | 173 | 0.0 | 0.0 | 0.00 | 0.00 | 0.00 | 74 | 1028.2 |
| 20260506095048 | 33 | 173 | 0.0 | 0.0 | 0.00 | 0.00 | 0.00 | 74 | 1028.2 |
| 20260506094529 | 33 | 173 | 0.0 | 0.0 | 0.00 | 0.00 | 0.00 | 73 | 1028.2 |
| 20260506094014 | 33 | 173 | 0.0 | 0.0 | 0.00 | 0.00 | 0.00 | 73 | 1028.2 |
| 20260506093515 | 34 | 173 | 0.0 | 0.0 | 0.00 | 0.00 | 0.00 | 73 | 1028.2 |
| 20260506092959 | 34 | 173 | 0.0 | 0.0 | 0.00 | 0.00 | 0.00 | 72 | 1028.1 |
| 20260506092459 | 34 | 173 | 0.0 | 0.0 | 0.00 | 0.00 | 0.00 | 72 | 1028.0 |
| 20260506091932 | 34 | 173 | 0.0 | 0.0 | 0.00 | 0.00 | 0.00 | 72 | 1028.1 |
| 20260506091436 | 34 | 173 | 0.0 | 0.0 | 0.00 | 0.00 | 0.00 | 72 | 1028.1 |
| 20260506090916 | 34 | 173 | 0.0 | 0.0 | 0.00 | 0.00 | 0.00 | 72 | 1028.2 |
| 20260506090412 | 34 | 166 | 0.0 | 0.0 | 0.00 | 0.00 | 0.00 | 72 | 1028.3 |
| 20260506090140 | 34 | 166 | 0.0 | 0.0 | 0.00 | 0.00 | 0.00 | 72 | 1028.3 |
| 20260506085410 | 34 | 166 | 0.0 | 0.0 | 0.00 | 0.00 | 0.00 | 71 | 1028.2 |
| 20260506084907 | 34 | 166 | 0.0 | 0.0 | 0.00 | 0.00 | 0.00 | 71 | 1028.0 |
| 20260506084408 | 34 | 166 | 0.0 | 0.0 | 0.00 | 0.00 | 0.00 | 70 | 1027.9 |
| 20260506083843 | 34 | 166 | 0.0 | 0.0 | 0.00 | 0.00 | 0.00 | 69 | 1027.8 |
| 20260506083338 | 34 | 166 | 0.0 | 0.0 | 0.00 | 0.00 | 0.00 | 68 | 1027.8 |
| 20260506082837 | 34 | 166 | 0.0 | 0.0 | 0.00 | 0.00 | 0.00 | 68 | 1027.7 |
| 20260506082333 | 35 | 166 | 0.0 | 0.0 | 0.00 | 0.00 | 0.00 | 67 | 1027.7 |
| 20260506082105 | 35 | 166 | 0.0 | 0.0 | 0.00 | 0.00 | 0.00 | 67 | 1027.7 |
| 20260506081312 | 35 | 166 | 0.0 | 0.0 | 0.00 | 0.00 | 0.00 | 68 | 1027.8 |
| 20260506080804 | 35 | 166 | 0.0 | 0.0 | 0.00 | 0.00 | 0.00 | 67 | 1027.9 |
| 20260506080301 | 35 | 166 | 0.0 | 0.0 | 0.00 | 0.00 | 0.00 | 68 | 1028.0 |
| 20260506073213 | 36 | 166 | 0.0 | 0.0 | 0.00 | 0.00 | 0.00 | 63 | 1027.6 |
| 20260506072648 | 36 | 166 | 0.0 | 0.0 | 0.00 | 0.00 | 0.00 | 63 | 1027.6 |
| 20260506072144 | 36 | 166 | 0.0 | 0.0 | 0.00 | 0.00 | 0.00 | 63 | 1027.5 |
| 20260506071644 | 36 | 166 | 0.0 | 0.0 | 0.00 | 0.00 | 0.00 | 63 | 1027.5 |
| 20260506071417 | 36 | 166 | 0.0 | 0.0 | 0.00 | 0.00 | 0.00 | 63 | 1027.4 |
| 20260506070644 | 37 | 166 | 0.0 | 0.0 | 0.00 | 0.00 | 0.00 | 62 | 1027.4 |
| 20260506070145 | 37 | 166 | 0.0 | 0.0 | 0.00 | 0.00 | 0.00 | 62 | 1027.5 |
| 20260506070118 | 37 | 166 | 0.0 | 0.0 | 0.00 | 0.00 | 0.00 | 61 | 1027.5 |
| 20260506062514 | 37 | 166 | 0.0 | 0.0 | 0.00 | 0.00 | 0.00 | 61 | 1027.5 |
| 20260506061947 | 37 | 166 | 0.0 | 0.0 | 0.00 | 0.00 | 0.00 | 61 | 1027.5 |
| 20260506061419 | 38 | 169 | 0.0 | 0.0 | 0.00 | 0.00 | 0.00 | 61 | 1027.5 |
| 20260506060918 | 38 | 169 | 0.0 | 0.0 | 0.00 | 0.00 | 0.00 | 61 | 1027.5 |
| 20260506060416 | 38 | 169 | 0.0 | 0.0 | 0.00 | 0.00 | 0.00 | 61 | 1027.5 |